Weather History for Dayton, OH

Change the Weather History Date:

Saturday, April 13, 2013

  Actual Average Record
Temperature  
Mean Temperature 45 °F 51 °F  
Max Temperature 52 °F 61 °F 85 °F (1887)
Min Temperature 38 °F 41 °F 19 °F (1950)
Degree Days  
Heating Degree Days 20 14  
Month to date heating degree days 195 216  
Since 1 July heating degree days 5157 5255  
Cooling Degree Days 0 0  
Month to date cooling degree days 9 0  
Year to date cooling degree days 9 0  
Moisture  
Dew Point 34 °F    
Average Humidity 71    
Maximum Humidity 85    
Minimum Humidity 56    
Precipitation  
Precipitation 0.00 in 0.13 in 1.07 in (1991)
Month to date precipitation 1.44 1.70  
Year to date precipitation 8.99 9.99  
Snow  
Snow 0.00 in 0.10 in 0.50 in (1950)
Month to date snowfall 0.0 0.5  
Since 1 July snowfall 35.9 23.2  
Snow Depth 0.00 in    
Sea Level Pressure  
Sea Level Pressure 29.99 in    
Wind  
Wind Speed 13 mph (West)    
Max Wind Speed 25 mph    
Max Gust Speed 30 mph    
Visibility 10 miles    
Events      
T = Trace of Precipitation, MM = Missing Value Source: NWS Daily Summary

Daily Weather History Graph

Daily Weather History Graph

Search for Another Location

Airport:

Trip Planner

Search our weather history database for the weather conditions in past years. The results will help you decide how hot, cold, wet, or windy it might be!

Date:

Astronomy

Apr. 13, 2013 Rise Set
Actual Time 7:01 AM EDT 8:13 PM EDT
Civil Twilight 6:33 AM EDT 8:41 PM EDT
Nautical Twilight 6:00 AM EDT 9:14 PM EDT
Astronomical Twilight 5:25 AM EDT 9:49 PM EDT
Moon 8:52 AM EDT (4/13) 11:36 PM EDT (4/13)
Length of Visible Light 14h 07m
Length of Day
13h 11m
Waxing Crescent, 10% of the Moon is Illuminated
Apr 13
Waxing Crescent
Apr 18
First Quarter
Apr 25
Full
May 2
Last Quarter
May 9
New

Hourly Weather History & Observations

Time (EDT) Temp. Windchill Dew Point Humidity Pressure Visibility Wind Dir Wind Speed Gust Speed Precip Events Conditions
12:56 AM 41.0 °F 33.9 °F 34.0 °F 76% 29.94 in 10.0 mi West 12.7 mph - N/A   Overcast
1:56 AM 39.9 °F 32.1 °F 35.1 °F 83% 29.95 in 10.0 mi West 13.8 mph - N/A   Overcast
2:56 AM 39.9 °F 32.9 °F 33.1 °F 77% 29.95 in 10.0 mi West 11.5 mph - N/A   Overcast
3:56 AM 39.9 °F 32.5 °F 32.0 °F 73% 29.95 in 10.0 mi WSW 12.7 mph - N/A   Overcast
4:56 AM 39.9 °F 32.9 °F 33.1 °F 77% 29.95 in 10.0 mi WSW 11.5 mph - N/A   Overcast
5:56 AM 39.0 °F 32.3 °F 33.1 °F 79% 29.94 in 10.0 mi WSW 10.4 mph - N/A   Overcast
6:56 AM 39.0 °F 32.3 °F 34.0 °F 82% 29.94 in 10.0 mi WSW 10.4 mph - N/A   Overcast
7:56 AM 39.0 °F 31.8 °F 34.0 °F 82% 29.95 in 10.0 mi WSW 11.5 mph - N/A   Overcast
8:56 AM 41.0 °F 32.5 °F 35.1 °F 79% 29.97 in 10.0 mi WSW 17.3 mph 24.2 mph N/A   Overcast
9:56 AM 39.9 °F 31.1 °F 34.0 °F 79% 29.98 in 10.0 mi WSW 17.3 mph - N/A   Overcast
10:46 AM 41.0 °F 32.2 °F 33.8 °F 76% 29.97 in 10.0 mi WSW 18.4 mph - N/A   Overcast
10:56 AM 41.0 °F 32.2 °F 33.1 °F 73% 29.99 in 10.0 mi WSW 18.4 mph 28.8 mph N/A   Overcast
11:56 AM 44.1 °F 35.2 °F 33.1 °F 65% 29.99 in 10.0 mi WSW 23.0 mph 28.8 mph N/A   Overcast
12:38 PM 44.6 °F 36.6 °F 33.8 °F 66% 29.98 in 10.0 mi WSW 19.6 mph - N/A   Overcast
12:56 PM 45.0 °F 37.9 °F 33.1 °F 63% 29.99 in 10.0 mi WSW 16.1 mph 26.5 mph N/A   Overcast
1:56 PM 46.9 °F - 34.0 °F 61% 29.99 in 10.0 mi West 20.7 mph 29.9 mph N/A   Overcast
2:56 PM 48.9 °F - 36.0 °F 61% 29.98 in 10.0 mi WSW 18.4 mph 27.6 mph N/A   Overcast
3:56 PM 50.0 °F - 35.1 °F 57% 29.98 in 10.0 mi West 19.6 mph 29.9 mph N/A   Mostly Cloudy
4:56 PM 50.0 °F - 37.0 °F 61% 29.99 in 10.0 mi WNW 15.0 mph 27.6 mph N/A   Mostly Cloudy
5:56 PM 51.1 °F - 37.0 °F 59% 30.00 in 10.0 mi West 18.4 mph 23.0 mph N/A   Scattered Clouds
6:56 PM 48.9 °F - 35.1 °F 59% 30.01 in 10.0 mi WNW 15.0 mph - N/A   Partly Cloudy
7:56 PM 45.0 °F 39.3 °F 33.1 °F 63% 30.02 in 10.0 mi NW 11.5 mph - N/A   Clear
8:56 PM 42.1 °F 37.7 °F 32.0 °F 67% 30.03 in 10.0 mi NW 6.9 mph - N/A   Clear
9:56 PM 39.0 °F 36.8 °F 32.0 °F 76% 30.05 in 10.0 mi NNW 3.5 mph - N/A   Clear
10:56 PM 39.9 °F - 32.0 °F 73% 30.05 in 10.0 mi Calm Calm - N/A   Mostly Cloudy
11:56 PM 41.0 °F - 30.9 °F 67% 30.06 in 10.0 mi Calm Calm - N/A   Overcast